Jacksonville NAS, FL

1:34 PM EDT on May 23, 2018 (GMT -0400)
Jacksonville Naval Air Station

Weather History for KNIP - November, 2013

Change the Weather History Date:

Sunday, November 3, 2013

  Actual Average Record
Temperature  
Mean Temperature 63 °F -  
Max Temperature 72 °F 74 °F 93 °F (2015)
Min Temperature 55 °F 58 °F 43 °F (1999)
Degree Days  
Heating Degree Days 2    
Growing Degree Days 13 (Base 50)    
Moisture  
Dew Point 48 °F    
Average Humidity 57    
Maximum Humidity 72    
Minimum Humidity 34    
Precipitation  
Precipitation 0.00 in - - ()
Sea Level Pressure  
Sea Level Pressure 30.10 in    
Wind  
Wind Speed 13 mph (North)    
Max Wind Speed 21 mph    
Max Gust Speed 26 mph    
Visibility 10 miles    
Events      
Averages and records for this station are not official NWS values.
T = Trace of Precipitation, MM = Missing Value Source: NWS Daily Summary

Daily Weather History Graph

Daily Weather History Graph

Search for Another Location

Airport or City:

Astronomy

Nov. 03, 2013 Rise Set
Actual Time 6:42 AM EST 5:37 PM EST
Civil Twilight 6:17 AM EST 6:02 PM EST
Nautical Twilight 5:49 AM EST 6:30 PM EST
Astronomical Twilight 5:21 AM EST 6:58 PM EST
Moon 6:44 AM EST (11/3) 5:53 PM EST (11/3)
Length of Visible Light 11h 44m
Length of Day
10h 54m
New Moon, 0% of the Moon is Illuminated
Nov 3
New Moon
Nov 10
First Quarter
Nov 17
Full
Nov 25
Last Quarter
Dec 2
New

Hourly Weather History & Observations

Time (EST) Temp. Dew Point Humidity Pressure Visibility Wind Dir Wind Speed Gust Speed Precip Events Conditions
12:53 AM 62.1 °F 52.0 °F 70% 29.98 in 10.0 mi West 9.2 mph - N/A   Clear
1:53 AM 61.0 °F 50.0 °F 67% 29.98 in 10.0 mi NW 5.8 mph - N/A   Clear
1:53 AM 61.0 °F 48.0 °F 62% 29.99 in 10.0 mi NNW 9.2 mph - N/A   Clear
2:53 AM 60.1 °F 48.9 °F 67% 30.01 in 10.0 mi NNW 13.8 mph - N/A   Clear
3:53 AM 59.0 °F 48.0 °F 67% 30.01 in 10.0 mi NNW 12.7 mph - N/A   Clear
4:53 AM 59.0 °F 48.0 °F 67% 30.02 in 10.0 mi NNW 13.8 mph - N/A   Clear
5:53 AM 57.0 °F 46.9 °F 69% 30.04 in 10.0 mi North 15.0 mph - N/A   Clear
6:53 AM 55.9 °F 46.9 °F 72% 30.07 in 10.0 mi North 15.0 mph - N/A   Clear
7:53 AM 57.0 °F 46.0 °F 67% 30.10 in 10.0 mi North 17.3 mph - N/A   Clear
8:53 AM 60.1 °F 46.9 °F 62% 30.12 in 10.0 mi North 13.8 mph - N/A   Clear
9:53 AM 63.0 °F 48.9 °F 60% 30.14 in 10.0 mi North 12.7 mph - N/A   Clear
10:53 AM 66.9 °F 51.1 °F 57% 30.14 in 10.0 mi NNE 13.8 mph 23.0 mph N/A   Partly Cloudy
11:53 AM 69.1 °F 51.1 °F 53% 30.13 in 10.0 mi NE 16.1 mph - N/A   Scattered Clouds
12:53 PM 71.1 °F 46.0 °F 41% 30.11 in 10.0 mi NNE 17.3 mph - N/A   Scattered Clouds
1:53 PM 71.1 °F 41.0 °F 34% 30.11 in 10.0 mi NE 15.0 mph 26.5 mph N/A   Scattered Clouds
2:53 PM 71.1 °F 43.0 °F 36% 30.11 in 10.0 mi NNE 20.7 mph 25.3 mph N/A   Scattered Clouds
3:53 PM 70.0 °F 44.1 °F 39% 30.12 in 10.0 mi NE 19.6 mph - N/A   Partly Cloudy
4:53 PM 68.0 °F 45.0 °F 43% 30.13 in 10.0 mi NE 15.0 mph - N/A   Partly Cloudy
5:53 PM 66.9 °F 46.9 °F 49% 30.15 in 10.0 mi NNE 12.7 mph - N/A   Partly Cloudy
6:53 PM 64.9 °F 48.9 °F 56% 30.17 in 10.0 mi North 13.8 mph - N/A   Partly Cloudy
7:53 PM 64.0 °F 48.9 °F 58% 30.18 in 10.0 mi North 15.0 mph - N/A   Partly Cloudy
8:53 PM 64.0 °F 50.0 °F 60% 30.19 in 10.0 mi North 13.8 mph - N/A   Clear
9:53 PM 64.0 °F 50.0 °F 60% 30.21 in 10.0 mi NNE 12.7 mph - N/A   Clear
10:53 PM 64.9 °F 48.9 °F 56% 30.21 in 10.0 mi NNE 10.4 mph - N/A   Clear